Date,TemperatureHighF,TemperatureAvgF,TemperatureLowF,DewpointHighF,DewpointAvgF,DewpointLowF,HumidityHigh,HumidityAvg,HumidityLow,PressureMaxIn,PressureMinIn,WindSpeedMaxMPH,WindSpeedAvgMPH,GustSpeedMaxMPH,PrecipitationSumIn
2013-1-1,49,45,40,48,42,20,99,89,41,0.00,40.00,5,2,10,0.80
2013-1-2,45,38,35,45,36,33,99,94,87,0.00,40.00,6,3,15,0.27
2013-1-3,42,34,26,35,30,25,98,86,61,0.00,40.00,6,3,13,0.01
2013-1-4,44,31,21,31,21,12,97,72,29,0.00,40.00,9,3,18,0.00
2013-1-5,55,36,20,32,22,9,94,63,19,0.00,40.00,4,2,11,0.01
2013-1-6,51,40,36,39,34,29,98,82,54,0.00,40.00,8,3,19,0.04
2013-1-7,58,38,25,33,26,21,96,69,24,0.00,40.00,5,2,19,0.01
2013-1-8,62,38,24,40,31,23,95,79,39,0.00,40.00,5,2,15,0.00
2013-1-9,57,48,39,53,45,37,98,91,82,0.00,40.00,3,1,5,0.00
2013-1-10,65,56,45,55,50,45,99,83,65,0.00,40.00,4,2,13,0.00
2013-1-11,63,61,57,61,57,50,99,88,66,0.00,40.00,6,3,15,0.41
2013-1-12,72,63,57,64,59,53,99,87,63,0.00,40.00,5,2,12,0.20
2013-1-13,66,62,59,61,55,51,98,76,68,0.00,40.00,6,3,17,0.44
2013-1-14,59,48,42,58,48,41,99,98,97,0.00,40.00,5,3,15,5.11
2013-1-15,60,47,42,60,47,41,99,99,98,0.00,40.00,4,2,11,2.49
2013-1-16,62,53,46,60,52,46,99,96,88,0.00,40.00,7,3,16,1.32
2013-1-17,46,41,32,46,40,30,99,96,78,0.00,40.00,8,4,36,1.54
2013-1-18,54,37,28,33,27,22,97,72,31,0.00,40.00,7,2,14,0.98
2013-1-19,58,38,24,40,26,11,98,73,16,0.00,40.00,7,2,14,0.01
2013-1-20,61,39,26,38,29,25,97,74,29,0.00,40.00,6,3,12,0.01
2013-1-21,50,34,25,37,22,10,97,69,26,0.00,40.00,8,2,22,0.00
2013-1-22,36,27,20,11,1,-10,52,35,13,0.00,40.00,10,6,24,0.00
2013-1-23,51,34,26,25,14,2,80,45,33,0.00,40.00,6,3,14,0.00
2013-1-24,44,36,24,33,18,3,82,50,27,0.00,40.00,9,5,21,0.00
2013-1-25,39,32,23,39,26,11,99,83,43,0.00,40.00,6,3,11,0.68
2013-1-26,52,38,28,38,29,18,99,75,26,0.00,40.00,7,3,14,0.03
2013-1-27,58,39,24,36,28,23,96,70,31,0.00,40.00,4,2,11,0.00
2013-1-28,58,49,42,49,41,34,90,74,66,0.00,40.00,5,2,11,0.00
2013-1-29,66,56,45,58,50,43,95,81,66,0.00,40.00,5,4,14,0.02
2013-1-30,65,58,41,60,54,40,98,87,71,0.00,40.00,9,6,26,3.54
2013-1-31,43,36,30,40,22,17,97,57,36,0.00,40.00,9,5,25,0.46
2013-2-1,41,28,18,27,11,0,81,51,25,0.00,40.00,14,6,31,0.00
2013-2-2,34,26,17,31,21,10,93,82,51,0.00,40.00,5,2,10,0.01
2013-2-3,44,36,30,34,26,21,96,68,51,0.00,40.00,9,5,24,0.19
2013-2-4,51,36,24,26,21,18,88,60,30,0.00,40.00,7,2,21,0.13
2013-2-5,61,43,35,43,32,20,94,69,30,0.00,40.00,7,2,15,0.01
2013-2-6,64,43,29,41,28,20,98,66,20,0.00,40.00,4,2,11,0.01
2013-2-7,46,40,33,45,36,29,98,86,66,0.00,40.00,3,1,7,0.26
2013-2-8,53,43,35,45,39,28,99,87,61,0.00,40.00,11,4,22,0.18
2013-2-9,66,37,25,34,27,14,96,72,14,0.00,40.00,6,2,20,0.01
2013-2-10,59,44,33,47,31,16,98,70,18,0.00,40.00,8,3,17,1.01
2013-2-11,56,49,38,54,46,33,99,90,50,0.00,40.00,5,2,11,1.20
2013-2-12,53,40,32,40,34,26,98,83,35,0.00,40.00,4,2,6,0.13
2013-2-13,49,41,35,46,38,29,98,90,75,0.00,40.00,10,4,24,0.38
2013-2-14,56,41,32,32,29,25,91,66,31,0.00,40.00,7,3,14,0.02
2013-2-15,60,37,26,41,31,25,97,83,33,0.00,40.00,9,3,18,0.15
2013-2-16,36,30,24,32,22,10,87,73,53,0.00,40.00,10,5,22,0.04
2013-2-17,39,28,21,16,10,5,74,46,28,0.00,40.00,10,6,31,0.01
2013-2-18,59,37,19,26,20,16,92,58,24,0.00,40.00,8,3,17,0.00
2013-2-19,51,41,34,43,26,12,98,60,26,0.00,40.00,8,4,21,0.62
2013-2-20,44,34,25,16,8,-12,69,37,9,0.00,40.00,8,4,27,0.01
2013-2-21,66,41,23,43,22,12,97,58,13,0.00,40.00,5,2,14,0.56
2013-2-22,47,44,40,43,40,37,98,90,78,0.00,40.00,4,2,14,1.23
2013-2-23,57,48,41,51,45,40,99,92,61,0.00,40.00,4,2,8,0.49
2013-2-24,58,44,31,43,30,17,99,67,21,0.00,40.00,7,3,18,0.09
2013-2-25,53,40,28,40,31,27,96,73,37,0.00,40.00,4,2,12,0.00
2013-2-26,59,49,40,51,42,31,98,78,63,0.00,40.00,9,5,21,1.66
2013-2-27,55,42,35,36,30,25,85,64,33,0.00,40.00,10,5,21,0.06
2013-2-28,40,34,31,28,24,21,85,67,59,0.00,40.00,9,6,21,0.03
2013-3-1,37,33,30,29,27,23,90,80,66,0.00,40.00,6,3,16,0.01
2013-3-2,38,31,26,29,26,18,92,82,61,0.00,40.00,10,5,24,0.08
2013-3-3,34,27,22,19,15,11,81,62,49,0.00,40.00,10,6,20,0.08
2013-3-4,56,36,17,30,19,6,92,59,17,0.00,40.00,5,2,10,0.01
2013-3-5,51,42,33,50,39,26,98,89,76,0.00,40.00,8,4,24,0.99
2013-3-6,33,29,26,27,24,19,93,81,71,0.00,40.00,15,9,29,0.07
2013-3-7,48,35,27,31,26,23,94,73,48,0.00,40.00,7,3,16,0.13
2013-3-8,58,39,26,29,23,10,96,64,16,0.00,40.00,8,3,15,0.09
2013-3-9,70,46,26,34,27,19,95,58,15,0.00,40.00,7,3,15,0.00
2013-3-10,68,53,35,41,30,23,88,48,18,0.00,40.00,8,4,17,0.00
2013-3-11,60,54,50,51,46,34,98,75,41,0.00,40.00,6,4,22,1.20
2013-3-12,53,42,34,49,33,27,98,73,40,0.00,40.00,8,4,22,0.77
2013-3-13,46,35,28,31,24,15,97,69,32,0.00,40.00,11,5,24,0.01
2013-3-14,49,34,24,17,14,7,68,46,18,0.00,40.00,11,4,22,0.00
2013-3-15,72,49,27,41,29,16,85,51,23,0.00,40.00,10,3,21,0.00
2013-3-16,76,66,57,45,40,37,48,40,29,0.00,40.00,11,7,27,0.00
2013-3-17,73,61,49,49,43,36,79,53,33,0.00,40.00,8,4,18,0.01
2013-3-18,59,53,46,51,47,43,98,81,62,0.00,40.00,6,2,20,0.92
2013-3-19,58,47,37,47,29,8,99,57,22,0.00,40.00,11,5,27,0.54
2013-3-20,56,40,27,28,18,7,90,50,16,0.00,40.00,13,4,27,0.01
2013-3-21,41,31,21,28,12,7,83,47,27,0.00,40.00,10,5,22,0.00
2013-3-22,47,34,22,27,19,13,82,56,28,0.00,40.00,4,1,8,0.00
2013-3-23,57,45,38,46,39,27,98,81,56,0.00,40.00,4,1,7,0.09
2013-3-24,61,49,44,52,45,33,98,87,61,0.00,40.00,10,3,20,1.29
2013-3-25,44,32,28,33,23,20,87,69,62,0.00,40.00,11,7,25,0.26
2013-3-26,37,30,28,27,24,20,88,76,59,0.00,40.00,8,6,22,0.04
2013-3-27,52,37,29,25,23,18,83,62,29,0.00,40.00,9,6,19,0.01
2013-3-28,55,49,35,25,20,15,66,33,23,0.00,40.00,9,6,22,0.00
2013-3-29,45,35,25,40,30,23,98,82,46,0.00,40.00,2,1,7,0.23
2013-3-30,64,50,39,48,40,33,98,76,32,0.00,40.00,5,2,15,0.20
2013-3-31,66,54,49,57,49,-100,99,92,62,0.00,40.00,8,2,18,1.02
2013-4-1,64,51,43,52,42,32,99,75,45,0.00,40.00,8,4,17,0.20
2013-4-2,58,48,37,33,22,12,63,39,18,0.00,40.00,7,5,17,0.00
2013-4-3,64,48,36,28,23,15,68,38,18,0.00,40.00,6,3,13,0.00
2013-4-4,47,42,40,41,38,28,98,88,47,0.00,40.00,3,1,7,1.30
2013-4-5,62,48,40,44,38,31,98,71,35,0.00,40.00,7,4,17,0.03
2013-4-6,72,52,30,45,32,26,98,59,18,0.00,40.00,9,3,16,0.01
2013-4-7,74,57,39,41,37,31,89,51,28,0.00,40.00,9,4,17,0.00
2013-4-8,75,62,47,54,45,41,88,59,33,0.00,40.00,9,5,23,0.00
2013-4-9,84,65,49,54,49,44,95,61,26,0.00,40.00,6,4,18,0.00
2013-4-10,87,70,52,59,50,46,91,54,25,0.00,40.00,8,5,16,0.00
2013-4-11,79,69,60,61,53,50,96,58,39,0.00,40.00,7,4,24,0.43
2013-4-12,67,59,49,59,48,34,98,71,34,0.00,40.00,7,4,17,1.83
2013-4-13,72,54,36,42,34,23,98,57,17,0.00,40.00,6,3,20,0.01
2013-4-14,72,52,36,50,40,32,97,69,25,0.00,40.00,6,2,17,0.04
2013-4-15,82,63,51,56,51,46,98,71,30,0.00,40.00,9,3,16,0.04
2013-4-16,83,66,49,70,54,48,98,70,40,0.00,40.00,6,2,11,0.02
2013-4-17,80,67,59,65,59,56,94,79,50,0.00,40.00,6,3,14,0.07
2013-4-18,78,68,59,60,55,49,94,67,38,0.00,40.00,8,4,21,0.06
2013-4-19,70,60,43,61,52,32,94,76,62,0.00,40.00,8,6,27,0.90
2013-4-20,60,46,34,34,30,27,90,55,29,0.00,40.00,8,5,26,0.16
2013-4-21,71,50,31,36,31,28,97,58,21,0.00,40.00,5,2,13,0.00
2013-4-22,74,55,36,40,36,32,97,55,22,0.00,40.00,5,2,11,0.00
2013-4-23,77,58,38,42,39,35,96,56,23,0.00,40.00,7,3,17,0.00
2013-4-24,69,57,46,60,49,41,95,77,49,0.00,40.00,8,3,18,0.26
2013-4-25,68,51,36,43,34,21,95,59,19,0.00,40.00,8,4,17,0.10
2013-4-26,74,52,31,40,34,26,97,59,17,0.00,40.00,5,2,17,0.00
2013-4-27,57,52,48,52,48,40,98,91,54,0.00,40.00,3,2,10,0.93
2013-4-28,54,52,50,53,50,-100,98,97,92,0.00,40.00,4,2,18,0.64
2013-4-29,72,59,51,59,53,51,99,82,47,0.00,40.00,4,2,14,0.35
2013-4-30,80,71,46,55,50,45,98,51,33,0.00,40.00,5,3,13,0.19
2013-5-1,79,66,51,56,50,45,97,61,32,0.00,40.00,7,3,16,0.11
2013-5-2,71,63,52,54,51,46,92,66,51,0.00,40.00,6,2,12,0.07
2013-5-3,74,61,55,52,50,46,88,68,38,0.00,40.00,8,3,21,0.04
2013-5-4,58,55,51,53,47,37,98,76,52,0.00,40.00,7,4,22,0.03
2013-5-5,58,53,51,55,52,50,98,97,91,0.00,40.00,4,1,11,0.03
2013-5-6,58,49,43,51,44,42,98,84,55,0.00,40.00,7,3,15,0.04
2013-5-7,68,52,41,50,44,40,98,78,41,0.00,40.00,6,2,16,0.03
2013-5-8,70,58,50,58,53,48,98,85,56,0.00,40.00,4,1,11,0.04
2013-5-9,81,62,50,61,53,48,98,79,34,0.00,40.00,6,2,12,0.02
2013-5-10,74,63,51,59,51,-100,98,72,50,0.00,40.00,9,3,19,0.03
2013-5-11,71,62,57,61,57,53,98,85,66,0.00,40.00,7,2,16,0.03
2013-5-12,63,54,43,50,38,-100,94,61,27,0.00,40.00,8,4,20,0.02
2013-5-13,65,48,34,43,34,27,97,65,27,0.00,40.00,8,3,22,0.02
2013-5-14,80,56,35,50,41,34,97,65,31,0.00,40.00,7,2,14,0.02
2013-5-15,87,67,52,60,51,47,97,63,27,0.00,40.00,6,3,14,0.01
2013-5-16,81,55,52,61,30,-100,97,76,40,0.00,40.00,4,2,8,0.01
2013-5-17,82,66,55,61,46,-100,97,70,40,0.00,40.00,6,2,15,0.01
2013-5-18,72,65,60,64,61,53,98,87,68,0.00,40.00,3,1,9,0.01
2013-5-19,75,65,61,67,63,60,98,93,75,0.00,40.00,2,1,11,0.01
2013-5-20,85,69,57,67,62,56,98,82,51,0.00,40.00,6,2,13,0.01
2013-5-21,88,72,61,71,63,59,98,77,40,0.00,40.00,7,2,22,0.01
2013-5-22,84,70,60,68,62,55,95,77,46,0.00,40.00,6,2,18,0.01
2013-5-23,80,68,60,65,58,51,98,73,44,0.00,40.00,7,4,23,0.00
2013-5-24,69,61,49,52,46,38,86,62,37,0.00,40.00,9,6,20,0.00
2013-5-25,79,57,39,45,40,32,98,61,23,0.00,40.00,7,2,18,0.00
2013-5-26,78,59,45,53,45,41,95,66,30,0.00,40.00,5,2,12,0.02
2013-5-27,85,66,47,56,51,46,97,66,35,0.00,40.00,6,2,14,0.01
2013-5-28,86,71,58,64,56,47,92,64,30,0.00,40.00,5,2,14,0.00
2013-5-29,87,71,57,63,58,53,98,66,33,0.00,40.00,5,2,12,0.00
2013-5-30,86,70,57,62,58,56,98,69,40,0.00,40.00,6,2,13,0.00
2013-5-31,85,71,58,63,58,57,97,69,41,0.00,40.00,7,3,16,0.00
2013-6-1,84,72,62,66,61,59,98,71,44,0.00,40.00,6,3,15,0.09
2013-6-2,72,67,64,69,64,-100,100,95,79,0.00,40.00,3,1,12,0.43
2013-6-3,81,69,62,65,62,59,100,82,51,0.00,40.00,6,2,14,0.10
2013-6-4,85,69,57,65,59,52,100,76,34,0.00,40.00,5,2,10,0.05
2013-6-5,85,68,59,69,62,57,99,84,49,0.00,40.00,6,2,19,0.03
2013-6-6,83,69,61,68,64,61,100,86,56,0.00,40.00,4,1,10,0.02
2013-6-7,83,70,63,69,64,61,99,85,52,0.00,40.00,7,2,13,0.17
2013-6-8,82,69,60,65,62,59,99,81,53,0.00,40.00,4,2,8,0.17
2013-6-9,85,69,60,70,64,59,99,87,57,0.00,40.00,4,2,11,0.25
2013-6-10,80,71,66,68,64,59,99,80,51,0.00,40.00,6,3,15,0.81
2013-6-11,85,73,64,69,66,64,100,80,51,0.00,40.00,5,2,15,0.27
2013-6-12,92,75,62,73,67,62,99,79,47,0.00,40.00,6,2,17,0.01
2013-6-13,86,73,65,72,67,59,99,85,52,0.00,40.00,7,3,21,0.33
2013-6-14,83,70,56,65,57,53,98,67,40,0.00,40.00,8,3,22,0.03
2013-6-15,85,69,52,64,58,51,98,74,44,0.00,40.00,4,2,9,0.00
2013-6-16,83,71,57,67,62,56,98,77,49,0.00,40.00,4,2,10,0.00
2013-6-17,84,72,67,72,68,64,98,87,66,0.00,40.00,3,2,10,0.23
2013-6-18,75,69,65,71,66,64,99,92,76,0.00,40.00,4,2,11,0.56
2013-6-19,85,70,61,65,62,61,99,79,48,0.00,40.00,5,2,11,0.11
2013-6-20,85,69,60,67,63,60,99,82,51,0.00,40.00,3,2,11,0.01
2013-6-22,86,80,67,67,63,60,90,59,44,0.00,40.00,4,3,8,0.04
2013-6-23,85,70,59,67,63,58,98,83,49,0.00,40.00,4,2,10,0.18
2013-6-24,87,73,65,72,68,65,99,84,56,0.00,40.00,4,2,13,0.20
2013-6-25,82,72,62,71,66,61,99,85,56,0.00,40.00,3,2,9,0.01
2013-6-26,85,72,63,73,68,63,99,86,59,0.00,40.00,4,1,11,0.01
2013-6-27,87,74,67,73,69,65,99,86,54,0.00,40.00,5,2,22,1.57
2013-6-28,87,73,65,76,68,63,99,85,49,0.00,40.00,6,2,19,0.15
2013-6-29,84,73,63,69,64,58,98,76,42,0.00,40.00,5,2,14,0.01
2013-6-30,86,70,57,70,60,56,98,75,40,0.00,40.00,6,2,11,0.00
2013-7-1,84,70,62,69,64,61,98,82,48,0.00,40.00,4,2,11,0.05
2013-7-2,83,71,62,69,64,61,98,82,55,0.00,40.00,5,2,11,0.06
2013-7-3,68,65,63,66,64,62,98,96,90,0.00,40.00,3,1,9,1.21
2013-7-4,75,67,63,72,66,62,99,95,72,0.00,40.00,4,1,10,0.90
2013-7-5,80,70,65,70,66,64,99,89,66,0.00,40.00,3,2,10,0.53
2013-7-6,81,70,66,71,67,64,99,90,62,0.00,40.00,3,2,11,1.00
2013-7-7,77,70,66,72,68,65,99,93,74,0.00,40.00,4,2,10,0.84
2013-7-8,87,73,67,72,68,66,99,87,54,0.00,40.00,5,2,10,0.41
2013-7-9,90,75,68,72,69,65,99,83,53,0.00,40.00,4,2,11,0.11
2013-7-10,88,72,68,73,65,-100,99,84,58,0.00,40.00,5,2,13,0.26
2013-7-11,86,74,68,72,69,67,99,86,63,0.00,40.00,5,2,10,0.07
2013-7-12,83,74,67,70,67,62,98,81,60,0.00,40.00,7,2,17,0.01
2013-7-13,83,72,64,69,65,63,97,78,54,0.00,40.00,6,2,15,0.00
2013-7-14,83,72,65,70,66,61,97,83,58,0.00,40.00,5,2,12,0.02
2013-7-15,86,73,64,71,66,62,98,79,53,0.00,40.00,4,2,11,0.01
2013-7-16,90,80,70,74,71,67,98,78,52,0.00,40.00,5,2,11,0.19
2013-7-17,91,75,67,74,69,62,99,84,55,0.00,40.00,4,2,10,0.05
2013-7-18,91,74,63,77,68,62,98,84,53,0.00,40.00,3,2,7,1.00
2013-7-19,89,74,65,74,68,65,99,86,48,0.00,40.00,3,2,9,0.21
2013-7-20,89,73,67,75,67,-100,98,85,55,0.00,40.00,3,2,16,0.47
2013-7-21,86,72,66,77,69,65,99,92,60,0.00,40.00,3,1,11,0.94
2013-7-22,85,72,65,71,68,64,99,87,62,0.00,40.00,6,2,11,0.19
2013-7-23,83,73,65,70,67,64,98,85,63,0.00,40.00,3,1,10,0.17
2013-7-24,85,74,67,71,68,65,98,82,54,0.00,40.00,5,2,11,0.00
2013-7-25,88,73,65,66,64,61,98,77,44,0.00,40.00,8,2,18,0.01
2013-7-26,87,70,59,68,64,58,98,83,52,0.00,40.00,4,2,14,0.38
2013-7-27,83,72,66,71,67,64,98,85,54,0.00,40.00,4,1,11,0.38
2013-7-28,83,71,64,68,64,60,98,81,50,0.00,40.00,6,2,12,0.00
2013-7-29,83,68,60,63,59,51,98,78,35,0.00,40.00,4,2,11,0.00
2013-7-30,88,69,53,69,61,52,97,78,42,0.00,40.00,3,2,6,0.00
2013-7-31,74,69,66,70,67,64,98,93,80,0.00,40.00,3,1,9,0.27
2013-8-1,83,72,66,71,66,63,98,85,60,0.00,40.00,7,2,17,0.01
2013-8-2,87,72,63,68,64,62,98,81,49,0.00,40.00,5,2,11,0.00
2013-8-3,83,71,62,70,65,61,98,84,57,0.00,40.00,5,1,10,0.00
2013-8-4,84,72,64,71,64,56,98,79,53,0.00,40.00,7,2,16,0.00
2013-8-5,86,70,58,67,62,57,98,77,44,0.00,40.00,4,2,12,0.00
2013-8-6,86,72,64,72,66,61,98,83,56,0.00,40.00,5,1,9,0.05
2013-8-7,84,74,69,74,70,67,96,88,62,0.00,40.00,4,1,9,0.11
2013-8-8,87,75,69,74,69,68,97,85,64,0.00,40.00,4,2,9,0.23
2013-8-9,86,75,68,77,70,66,98,88,59,0.00,40.00,4,2,10,0.44
2013-8-10,83,73,69,75,71,68,98,93,71,0.00,40.00,3,1,7,0.58
2013-8-11,85,74,66,74,69,65,98,86,60,0.00,40.00,5,2,9,0.02
2013-8-12,85,73,67,74,70,66,98,90,63,0.00,40.00,3,1,6,0.06
2013-8-13,84,72,68,71,66,-100,98,86,60,0.00,40.00,4,1,13,0.49
2013-8-14,78,70,63,68,64,59,98,84,59,0.00,40.00,6,2,15,0.11
2013-8-15,80,63,60,68,51,-100,97,80,57,0.00,40.00,3,2,9,0.03
2013-8-16,79,64,58,64,55,-100,98,81,54,0.00,40.00,2,1,7,0.04
2013-8-17,73,65,59,66,61,58,98,89,68,0.00,40.00,2,1,4,0.22
2013-8-18,77,66,63,69,62,-100,98,91,65,0.00,40.00,3,1,7,0.81
2013-8-19,79,65,64,72,57,-100,98,92,80,0.00,40.00,4,1,7,0.65
2013-8-20,83,70,65,71,64,-100,98,87,65,0.00,40.00,4,2,9,0.01
2013-8-21,75,69,65,71,67,64,98,93,80,0.00,40.00,3,1,7,0.05
2013-8-22,85,74,64,71,67,63,98,83,55,0.00,40.00,5,2,12,0.05
2013-8-23,87,73,65,71,67,63,98,84,54,0.00,40.00,9,2,17,0.01
2013-8-24,89,72,62,68,65,61,98,81,50,0.00,40.00,5,2,11,0.03
2013-8-25,84,68,57,65,59,-100,98,79,48,0.00,40.00,5,1,10,0.03
2013-8-26,85,70,61,65,63,60,98,81,49,0.00,40.00,4,2,10,0.01
2013-8-27,83,66,59,67,62,58,98,89,58,0.00,40.00,5,1,10,0.00
2013-8-28,86,79,68,70,68,67,96,71,57,0.00,40.00,5,3,12,0.00
2013-8-29,86,73,65,75,68,64,99,87,62,0.00,40.00,6,1,11,0.00
2013-8-30,90,74,65,77,68,65,99,85,54,0.00,40.00,4,1,9,0.00
2013-8-31,88,75,66,75,70,65,99,86,59,0.00,40.00,3,1,6,0.04
2013-9-1,89,72,67,74,67,-100,99,89,60,0.00,40.00,3,2,11,0.57
2013-9-2,86,72,65,72,68,65,99,87,60,0.00,40.00,4,2,14,0.13
2013-9-3,85,72,64,69,66,63,99,83,52,0.00,40.00,6,2,16,0.88
2013-9-4,86,71,63,67,64,62,98,82,52,0.00,40.00,4,2,9,0.01
2013-9-5,85,70,61,69,64,60,98,83,45,0.00,40.00,4,2,11,0.00
2013-9-6,86,70,61,66,63,60,98,81,49,0.00,40.00,4,2,8,0.00
2013-9-7,85,70,59,69,63,58,98,83,51,0.00,40.00,5,1,11,0.00
2013-9-8,84,69,60,70,61,-100,98,81,53,0.00,40.00,6,2,13,0.00
2013-9-9,86,70,60,72,65,59,98,87,55,0.00,40.00,3,1,8,0.00
2013-9-10,89,73,61,69,65,60,98,81,49,0.00,40.00,3,2,10,0.26
2013-9-11,88,72,64,73,66,63,98,84,48,0.00,40.00,5,2,9,0.27
2013-9-12,78,68,64,72,66,63,98,94,76,0.00,40.00,4,1,7,1.49
2013-9-13,78,68,55,66,60,51,98,78,46,0.00,40.00,8,3,16,0.37
2013-9-14,78,60,48,60,54,47,98,81,53,0.00,40.00,4,2,10,0.01
2013-9-15,80,60,50,63,53,-100,98,84,43,0.00,40.00,5,1,12,0.00
2013-9-16,81,66,56,65,59,53,98,81,38,0.00,40.00,5,2,14,0.00
2013-9-17,77,66,58,66,60,57,98,84,62,0.00,40.00,4,1,9,0.00
2013-9-18,63,61,60,59,57,56,90,86,85,0.00,40.00,3,1,4,0.00
2013-9-19,82,67,57,65,61,56,98,84,54,0.00,40.00,4,2,8,0.00
2013-9-20,84,68,58,67,62,57,98,83,47,0.00,40.00,6,2,11,0.00
2013-9-21,67,64,60,66,62,57,97,94,86,0.00,40.00,4,2,15,1.66
2013-9-22,77,62,55,59,53,-100,98,79,53,0.00,40.00,4,2,15,0.05
2013-9-23,78,62,52,65,57,51,98,87,53,0.00,40.00,3,1,6,0.00
2013-9-24,76,63,53,64,58,52,98,87,60,0.00,40.00,3,1,7,0.00
2013-9-25,66,64,61,64,62,60,98,96,92,0.00,40.00,2,1,5,1.36
2013-9-26,77,66,58,65,61,57,98,86,59,0.00,40.00,5,2,12,0.12
2013-9-27,78,63,54,63,57,53,98,84,49,0.00,40.00,5,2,10,0.00
2013-9-28,76,63,53,60,57,52,98,83,52,0.00,40.00,3,1,7,0.00
2013-9-29,73,60,56,59,54,-100,97,84,62,0.00,40.00,5,2,11,0.00
2013-9-30,73,61,52,61,56,51,98,87,55,0.00,40.00,3,1,11,0.00
2013-10-1,63,60,58,61,59,57,97,96,93,0.00,40.00,1,0,3,0.00
2013-10-2,81,65,56,65,60,55,98,85,55,0.00,40.00,4,1,8,0.00
2013-10-3,83,67,59,65,61,58,98,83,50,0.00,40.00,3,1,7,0.00
2013-10-4,83,66,55,64,59,54,98,83,47,0.00,40.00,4,1,8,0.00
2013-10-5,85,68,57,67,61,56,98,83,48,0.00,40.00,3,1,9,0.00
2013-10-6,79,66,56,68,60,55,98,82,52,0.00,40.00,4,2,11,0.13
2013-10-7,67,59,49,63,53,47,98,83,58,0.00,40.00,8,3,17,0.79
2013-10-8,78,58,46,59,52,45,98,82,51,0.00,40.00,5,2,10,0.01
2013-10-9,78,61,50,60,55,49,98,82,54,0.00,40.00,6,2,13,0.00
2013-10-10,72,60,51,58,52,50,98,79,49,0.00,40.00,6,3,14,0.00
2013-10-11,76,58,46,57,51,45,97,81,48,0.00,40.00,6,2,15,0.00
2013-10-12,77,60,48,58,53,47,98,82,49,0.00,40.00,5,2,14,0.00
2013-10-13,74,59,51,62,54,-100,98,87,65,0.00,40.00,5,2,11,0.00
2013-10-14,78,64,55,62,57,54,98,83,48,0.00,40.00,3,1,9,0.00
2013-10-15,76,62,51,60,56,50,97,84,55,0.00,40.00,4,1,9,0.00
2013-10-16,71,61,55,61,57,54,97,87,64,0.00,40.00,3,2,8,0.03
2013-10-17,70,61,54,66,59,51,98,94,86,0.00,40.00,6,2,14,0.22
2013-10-18,70,56,49,52,50,47,96,80,44,0.00,40.00,5,2,12,0.01
2013-10-19,66,54,49,54,48,44,97,82,48,0.00,40.00,4,2,18,0.00
2013-10-20,68,50,39,45,38,-100,97,72,32,0.00,40.00,4,2,10,0.00
2013-10-21,72,50,35,49,42,34,97,78,37,0.00,40.00,5,2,14,0.00
2013-10-22,70,56,48,52,49,46,96,79,49,0.00,40.00,4,2,12,0.01
2013-10-23,51,46,35,46,37,29,97,74,55,0.00,40.00,8,4,24,0.01
2013-10-24,54,42,32,37,34,30,93,74,46,0.00,40.00,7,3,20,0.00
2013-10-25,51,40,29,35,26,22,88,60,34,0.00,40.00,7,4,20,0.00
2013-10-26,60,41,24,36,27,22,93,66,25,0.00,40.00,6,2,12,0.00
2013-10-27,61,52,45,50,44,-100,94,78,56,0.00,40.00,4,2,6,0.01
2013-10-28,65,54,50,55,48,-100,97,85,61,0.00,40.00,4,2,12,0.10
2013-10-29,68,55,48,53,50,47,97,85,53,0.00,40.00,3,1,7,0.01
2013-10-30,77,61,51,56,53,50,96,77,43,0.00,40.00,5,2,10,0.00
2013-10-31,68,62,55,59,54,50,92,75,55,0.00,40.00,6,4,22,0.18
2013-11-1,76,64,48,60,52,38,97,71,27,0.00,40.00,6,3,22,0.78
2013-11-2,59,47,39,48,41,36,97,82,47,0.00,40.00,7,2,17,0.09
2013-11-3,62,48,37,41,35,-100,93,67,37,0.00,40.00,6,3,15,0.06
2013-11-4,66,45,32,42,35,31,96,73,34,0.00,40.00,4,2,10,0.00
2013-11-5,71,50,36,43,38,33,93,70,33,0.00,40.00,5,2,10,0.00
2013-11-6,71,58,45,54,48,43,92,71,45,0.00,40.00,7,2,15,0.00
2013-11-7,57,50,37,55,44,32,97,81,55,0.00,40.00,8,4,24,0.20
2013-11-8,58,41,30,34,25,17,94,59,23,0.00,40.00,7,3,15,0.01
2013-11-9,60,40,27,35,24,-100,93,63,22,0.00,40.00,6,2,11,0.00
2013-11-10,66,50,35,38,32,29,86,54,27,0.00,40.00,7,3,16,0.00
2013-11-11,70,46,28,37,30,25,95,64,18,0.00,40.00,3,2,6,0.00
2013-11-12,48,36,26,36,28,12,88,73,52,0.00,40.00,12,5,24,0.02
2013-11-13,48,30,17,20,15,12,89,58,23,0.00,40.00,5,3,12,0.01
2013-11-14,63,36,19,27,18,6,91,61,10,0.00,40.00,4,2,9,0.00
2013-11-15,48,38,27,47,34,21,98,86,65,0.00,40.00,4,2,9,0.29
2013-11-16,67,54,47,57,48,-100,98,85,63,0.00,40.00,5,2,9,0.21
2013-11-17,66,61,55,61,56,51,98,84,69,0.00,40.00,6,3,11,1.15
2013-11-18,65,57,46,61,41,26,94,59,32,0.00,40.00,10,5,24,0.47
2013-11-19,59,46,38,31,25,20,71,46,25,0.00,40.00,6,3,20,0.01
2013-11-20,60,43,28,35,29,20,95,64,22,0.00,40.00,6,2,11,0.00
2013-11-21,63,51,40,50,42,30,85,70,57,0.00,40.00,4,2,8,0.00
2013-11-22,65,58,54,58,54,50,97,87,74,0.00,40.00,7,2,14,0.10
2013-11-23,56,44,33,53,38,-100,95,82,57,0.00,40.00,7,5,19,0.05
2013-11-24,39,29,21,20,12,5,70,52,25,0.00,40.00,10,5,20,0.01
2013-11-25,45,32,22,34,17,10,91,59,24,0.00,40.00,3,2,7,0.03
2013-11-26,45,41,36,44,40,34,98,96,90,0.00,40.00,7,2,21,1.25
2013-11-27,39,28,22,37,24,12,91,83,65,0.00,40.00,12,8,30,1.79
2013-11-28,50,28,14,29,20,11,95,73,28,0.00,40.00,4,2,14,0.57
2013-11-29,56,34,21,33,25,19,95,75,34,0.00,40.00,4,2,7,0.07
2013-11-30,59,34,25,35,24,-100,95,74,20,0.00,40.00,7,3,15,0.01
2013-12-1,59,41,28,38,32,26,95,74,39,0.00,40.00,4,2,11,0.01
2013-12-2,51,44,39,45,40,34,95,87,75,0.00,40.00,3,1,6,0.04
2013-12-3,57,51,46,52,48,45,98,91,78,0.00,40.00,2,1,6,0.04
2013-12-4,69,58,49,58,52,47,97,81,59,0.00,40.00,5,3,14,0.02
2013-12-5,71,64,60,63,59,54,97,85,67,0.00,40.00,7,3,16,0.43
2013-12-6,68,64,47,63,60,46,97,87,77,0.00,40.00,8,4,20,2.44
2013-12-7,47,39,36,46,36,-100,97,90,78,0.00,40.00,6,3,13,1.50
2013-12-8,50,46,40,49,44,38,98,96,92,0.00,40.00,4,2,7,1.03
2013-12-9,55,51,46,54,49,44,98,95,80,0.00,40.00,5,2,10,1.51
2013-12-10,47,37,27,46,33,23,97,83,60,0.00,40.00,10,5,22,1.18
2013-12-11,56,33,21,28,22,13,94,71,18,0.00,40.00,5,2,14,0.01
2013-12-12,43,32,25,22,15,1,80,53,20,0.00,40.00,8,4,16,0.01
2013-12-13,51,33,19,28,20,16,90,64,29,0.00,40.00,4,2,6,0.00
2013-12-14,52,44,36,49,38,-100,97,84,67,0.00,40.00,5,3,11,1.08
2013-12-15,50,34,26,46,30,24,92,86,79,0.00,40.00,9,5,21,0.04
2013-12-16,56,31,22,30,25,20,94,81,28,0.00,40.00,6,2,12,0.01
2013-12-17,61,40,28,35,28,22,95,71,29,0.00,40.00,11,5,26,0.01
2013-12-18,51,34,27,21,15,-4,72,51,10,0.00,40.00,9,4,22,0.01
2013-12-19,66,38,23,30,22,17,88,62,15,0.00,40.00,6,3,15,0.00
2013-12-20,63,47,31,46,34,27,87,63,32,0.00,40.00,5,3,11,0.00
2013-12-21,67,60,54,61,53,-100,95,80,75,0.00,40.00,7,4,21,0.40
2013-12-22,68,58,53,62,55,52,98,92,69,0.00,40.00,11,4,29,3.12
2013-12-23,53,44,32,52,41,28,98,90,76,0.00,40.00,8,4,18,0.60
2013-12-24,32,28,20,28,20,14,87,74,59,0.00,40.00,10,5,21,0.03
2013-12-25,48,28,16,27,18,13,90,72,28,0.00,40.00,6,2,11,0.00
2013-12-26,51,33,22,29,23,20,93,72,33,0.00,40.00,6,3,12,0.00
2013-12-27,55,34,22,31,24,20,93,74,31,0.00,40.00,5,2,9,0.01
2013-12-28,39,31,24,37,27,-100,97,90,68,0.00,40.00,3,1,6,0.65
2013-12-29,50,42,35,45,39,34,98,92,66,0.00,40.00,5,2,11,1.81
2013-12-30,41,37,34,39,35,31,97,90,82,0.00,40.00,6,4,12,0.01
2013-12-31,40,32,26,31,24,16,95,76,39,0.00,40.00,6,2,18,0.00
2014-1-1,52,33,24,29,23,16,94,71,24,0.00,40.00,5,2,10,0.00
2014-1-2,47,37,18,45,33,12,97,86,71,0.00,40.00,14,5,31,0.28